CFG1XH EDLW-LEPA

Flight info

Callsign CFG1XH
Flight time 2h 13m
Altitude 35000
Route BAMSU2Q BAMSU M170 NVO Y841 KENUM DCT GESLO DCT LIMGO DCT SUTAL DCT GTQ DCT POGOL DCT LASAT DCT MOROK DCT GILIR DCT GEVEA DCT INCUS DCT BALSI DCT RETNO DCT TUPOX DCT MTG DCT DIVKO DCT VATIR N852 VERSO DCT LUNIK
Aircraft A21N/M-SBDE3FGHIJ1J4J7LORVWXYZ/SB2D1G1

Departure

Time 2026-05-05 15:38
Airport Dortmund Airport (EDLW)

Arrival

Time 2026-05-05 17:51
Airport Palma de Mallorca Airport (LEPA)
Time Latitude Longitude Altitude Speed Heading
2026-05-05 14:48 51.51584 7.61284 425 ft 0 kts 332°
2026-05-05 15:33 51.51591 7.61279 434 ft 0 kts 332°
2026-05-05 15:33 51.51605 7.61266 432 ft 4 kts 332°
2026-05-05 15:33 51.51629 7.61239 439 ft 5 kts 305°
2026-05-05 15:33 51.51627 7.61184 433 ft 6 kts 248°
2026-05-05 15:34 51.51605 7.61118 425 ft 8 kts 242°
2026-05-05 15:34 51.51585 7.61032 430 ft 9 kts 249°
2026-05-05 15:34 51.51552 7.60934 436 ft 11 kts 240°
2026-05-05 15:34 51.51513 7.60827 423 ft 12 kts 240°
2026-05-05 15:35 51.51471 7.60710 423 ft 13 kts 240°
2026-05-05 15:35 51.51435 7.60607 417 ft 7 kts 241°
2026-05-05 15:35 51.51429 7.60590 418 ft 0 kts 241°
2026-05-05 15:35 51.51421 7.60567 429 ft 7 kts 241°
2026-05-05 15:36 51.51393 7.60486 421 ft 9 kts 241°
2026-05-05 15:36 51.51363 7.60387 417 ft 11 kts 256°
2026-05-05 15:36 51.51395 7.60275 418 ft 12 kts 329°
2026-05-05 15:36 51.51465 7.60221 413 ft 8 kts 355°
2026-05-05 15:37 51.51488 7.60243 416 ft 0 kts 61°
2026-05-05 15:37 51.51488 7.60244 416 ft 2 kts 61°
2026-05-05 15:37 51.51631 7.60654 418 ft 85 kts 60°
2026-05-05 15:38 51.52061 7.61873 450 ft 160 kts 57°
2026-05-05 15:38 51.52627 7.63467 1269 ft 163 kts 59°
2026-05-05 15:38 51.53148 7.65070 1936 ft 160 kts 62°
2026-05-05 15:38 51.53670 7.66682 2432 ft 169 kts 59°
2026-05-05 15:39 51.54295 7.68390 2806 ft 185 kts 60°
2026-05-05 15:39 51.54964 7.70261 3220 ft 201 kts 60°
2026-05-05 15:39 51.55687 7.72295 3626 ft 220 kts 60°
2026-05-05 15:39 51.56388 7.74633 3881 ft 245 kts 76°
2026-05-05 15:40 51.56381 7.77445 4311 ft 261 kts 105°
2026-05-05 15:40 51.55721 7.80188 5000 ft 267 kts 123°
2026-05-05 15:40 51.54447 7.82336 5739 ft 267 kts 149°
2026-05-05 15:40 51.52717 7.83375 6510 ft 267 kts 173°
2026-05-05 15:41 51.50877 7.83146 7255 ft 268 kts 198°
2026-05-05 15:41 51.49256 7.81720 7951 ft 272 kts 220°
2026-05-05 15:41 51.47929 7.79538 8731 ft 275 kts 227°
2026-05-05 15:41 51.46648 7.77253 9491 ft 277 kts 226°
2026-05-05 15:42 51.45335 7.74953 10099 ft 284 kts 226°
2026-05-05 15:42 51.43943 7.72563 10396 ft 301 kts 225°
2026-05-05 15:42 51.42462 7.70054 10649 ft 319 kts 225°
2026-05-05 15:42 51.40881 7.67396 10909 ft 337 kts 225°
2026-05-05 15:43 51.39222 7.64622 11224 ft 351 kts 225°
2026-05-05 15:43 51.37511 7.61766 11777 ft 358 kts 225°
2026-05-05 15:43 51.35801 7.58913 12414 ft 362 kts 225°
2026-05-05 15:43 51.34030 7.55961 13119 ft 364 kts 225°
2026-05-05 15:44 51.32287 7.53067 13726 ft 368 kts 225°
2026-05-05 15:44 51.30501 7.50104 14276 ft 372 kts 225°
2026-05-05 15:44 51.28697 7.47117 14829 ft 376 kts 225°
2026-05-05 15:44 51.26870 7.44096 15401 ft 379 kts 225°
2026-05-05 15:45 51.25030 7.41055 15976 ft 382 kts 225°
2026-05-05 15:45 51.23176 7.37993 16544 ft 385 kts 225°
2026-05-05 15:45 51.21338 7.34843 17103 ft 388 kts 227°
2026-05-05 15:45 51.19559 7.31575 17666 ft 392 kts 228°
2026-05-05 15:46 51.17777 7.28266 18197 ft 395 kts 228°
2026-05-05 15:46 51.16609 7.26104 18513 ft 397 kts 228°
2026-05-05 15:46 51.14773 7.22715 19014 ft 399 kts 228°
2026-05-05 15:46 51.12359 7.18272 19654 ft 402 kts 227°
2026-05-05 15:47 51.10516 7.14896 20081 ft 405 kts 227°
2026-05-05 15:47 51.09261 7.12599 20366 ft 407 kts 227°
2026-05-05 15:47 51.06792 7.08082 20927 ft 410 kts 227°
2026-05-05 15:47 51.05548 7.05812 21214 ft 411 kts 227°
2026-05-05 15:48 51.03664 7.02373 21611 ft 414 kts 227°
2026-05-05 15:48 51.01762 6.98906 22004 ft 416 kts 227°
2026-05-05 15:48 50.99854 6.95436 22366 ft 418 kts 227°
2026-05-05 15:48 50.97935 6.91948 22720 ft 420 kts 227°
2026-05-05 15:49 50.96001 6.88444 23057 ft 422 kts 227°
2026-05-05 15:49 50.94064 6.84936 23378 ft 424 kts 227°
2026-05-05 15:49 50.92112 6.81403 23632 ft 426 kts 227°
2026-05-05 15:49 50.90155 6.77869 23903 ft 428 kts 226°
2026-05-05 15:50 50.88188 6.74319 24274 ft 429 kts 226°
2026-05-05 15:50 50.86223 6.70778 24645 ft 431 kts 226°
2026-05-05 15:50 50.84238 6.67197 25020 ft 433 kts 227°
2026-05-05 15:50 50.82446 6.63421 25366 ft 437 kts 236°
2026-05-05 15:51 50.81071 6.59111 25720 ft 442 kts 245°
2026-05-05 15:51 50.79931 6.54590 26093 ft 444 kts 246°
2026-05-05 15:51 50.78814 6.50025 26453 ft 446 kts 246°
2026-05-05 15:51 50.77680 6.45439 26836 ft 448 kts 246°
2026-05-05 15:52 50.76529 6.40844 27202 ft 450 kts 246°
2026-05-05 15:52 50.75366 6.36240 27537 ft 452 kts 245°
2026-05-05 15:52 50.73984 6.31805 27884 ft 450 kts 236°
2026-05-05 15:52 50.72110 6.27890 28285 ft 445 kts 225°
2026-05-05 15:53 50.69788 6.24690 28656 ft 442 kts 213°
2026-05-05 15:53 50.67128 6.22330 28966 ft 440 kts 202°
2026-05-05 15:53 50.64207 6.20836 29328 ft 439 kts 193°
2026-05-05 15:53 50.61269 6.19782 29701 ft 438 kts 192°
2026-05-05 15:54 50.58300 6.18751 30056 ft 437 kts 192°
2026-05-05 15:54 50.55342 6.17703 30426 ft 434 kts 192°
2026-05-05 15:54 50.52408 6.16645 30803 ft 432 kts 192°
2026-05-05 15:54 50.49488 6.15579 31195 ft 429 kts 192°
2026-05-05 15:55 50.46591 6.14518 31578 ft 427 kts 191°
2026-05-05 15:55 50.43704 6.13458 31930 ft 425 kts 191°
2026-05-05 15:55 50.40826 6.12406 32285 ft 422 kts 191°
2026-05-05 15:55 50.37968 6.11365 32629 ft 420 kts 191°
2026-05-05 15:56 50.35127 6.10334 32953 ft 418 kts 191°
2026-05-05 15:56 50.32308 6.09309 33264 ft 415 kts 191°
2026-05-05 15:56 50.29495 6.08287 33547 ft 413 kts 191°
2026-05-05 15:56 50.26730 6.07283 33822 ft 411 kts 191°
2026-05-05 15:57 50.23950 6.06277 33983 ft 411 kts 191°
2026-05-05 15:57 50.21160 6.05267 34099 ft 412 kts 191°
2026-05-05 15:57 50.18361 6.04258 34208 ft 413 kts 191°
2026-05-05 15:57 50.15560 6.03247 34324 ft 414 kts 191°
2026-05-05 15:58 50.12753 6.02237 34450 ft 414 kts 190°
2026-05-05 15:58 50.09918 6.01558 34564 ft 412 kts 182°
2026-05-05 15:58 50.07056 6.01682 34658 ft 411 kts 172°
2026-05-05 15:58 50.04267 6.02692 34748 ft 412 kts 161°
2026-05-05 15:59 50.01595 6.04320 34819 ft 414 kts 158°
2026-05-05 15:59 49.96267 6.07804 34813 ft 416 kts 158°
2026-05-05 16:00 49.90902 6.11194 34806 ft 416 kts 158°
2026-05-05 16:00 49.85533 6.14558 34808 ft 415 kts 158°
2026-05-05 16:01 49.80199 6.17891 34804 ft 416 kts 158°
2026-05-05 16:01 49.74804 6.21255 34821 ft 418 kts 158°
2026-05-05 16:02 49.69404 6.24623 34818 ft 418 kts 158°
2026-05-05 16:02 49.64006 6.27973 34817 ft 418 kts 158°
2026-05-05 16:03 49.58637 6.31414 34810 ft 415 kts 157°
2026-05-05 16:03 49.53276 6.34887 34812 ft 419 kts 157°
2026-05-05 16:04 49.47888 6.38365 34817 ft 419 kts 157°
2026-05-05 16:04 49.42565 6.41941 34818 ft 420 kts 156°
2026-05-05 16:05 49.37227 6.45581 34805 ft 419 kts 156°
2026-05-05 16:05 49.31889 6.49211 34813 ft 421 kts 156°
2026-05-05 16:06 49.26530 6.52844 34804 ft 421 kts 156°
2026-05-05 16:06 49.21164 6.56471 34808 ft 421 kts 156°
2026-05-05 16:07 49.15795 6.60094 34801 ft 421 kts 156°
2026-05-05 16:07 49.10423 6.63703 34800 ft 422 kts 156°
2026-05-05 16:08 49.05071 6.67296 34801 ft 422 kts 156°
2026-05-05 16:08 48.99632 6.70679 34803 ft 422 kts 164°
2026-05-05 16:08 48.96749 6.71495 34800 ft 423 kts 175°
2026-05-05 16:09 48.93800 6.71553 34803 ft 423 kts 180°
2026-05-05 16:09 48.87909 6.71230 34812 ft 424 kts 181°
2026-05-05 16:10 48.82009 6.70953 34802 ft 424 kts 181°
2026-05-05 16:10 48.76098 6.70717 34810 ft 424 kts 181°
2026-05-05 16:11 48.70224 6.70486 34804 ft 424 kts 181°
2026-05-05 16:12 48.58410 6.70040 34811 ft 424 kts 181°
2026-05-05 16:13 48.43668 6.69466 34816 ft 425 kts 181°
2026-05-05 16:13 48.37752 6.69238 34813 ft 425 kts 181°
2026-05-05 16:14 48.25930 6.68784 34828 ft 425 kts 181°
2026-05-05 16:15 48.14106 6.68325 34830 ft 424 kts 181°
2026-05-05 16:16 48.02325 6.67878 34841 ft 424 kts 182°
2026-05-05 16:17 47.93456 6.67536 34853 ft 425 kts 182°
2026-05-05 16:18 47.84616 6.67205 34852 ft 425 kts 182°
2026-05-05 16:19 47.75723 6.66870 34849 ft 427 kts 182°
2026-05-05 16:19 47.66802 6.66534 34848 ft 427 kts 182°
2026-05-05 16:20 47.54978 6.66089 34844 ft 424 kts 183°
2026-05-05 16:22 47.40303 6.64643 34860 ft 422 kts 197°
2026-05-05 16:23 47.29175 6.59520 34860 ft 418 kts 199°
2026-05-05 16:23 47.20842 6.55728 34861 ft 418 kts 198°
2026-05-05 16:24 47.15319 6.53231 34867 ft 416 kts 199°
2026-05-05 16:25 47.07004 6.49469 34871 ft 416 kts 199°
2026-05-05 16:25 46.98740 6.45746 34867 ft 415 kts 199°
2026-05-05 16:26 46.87699 6.40785 34875 ft 414 kts 199°
2026-05-05 16:27 46.82181 6.38312 34872 ft 414 kts 199°
2026-05-05 16:27 46.76663 6.35854 34876 ft 413 kts 199°
2026-05-05 16:28 46.71209 6.33425 34885 ft 412 kts 199°
2026-05-05 16:28 46.65721 6.30986 34885 ft 412 kts 199°
2026-05-05 16:29 46.60226 6.28547 34879 ft 412 kts 199°
2026-05-05 16:29 46.54737 6.26115 34880 ft 412 kts 199°
2026-05-05 16:30 46.49248 6.23691 34882 ft 412 kts 199°
2026-05-05 16:30 46.43766 6.21273 34889 ft 412 kts 199°
2026-05-05 16:31 46.38265 6.18848 34892 ft 411 kts 200°
2026-05-05 16:31 46.32810 6.16453 34903 ft 410 kts 200°
2026-05-05 16:32 46.27378 6.14076 34907 ft 410 kts 199°
2026-05-05 16:32 46.21779 6.12343 34905 ft 413 kts 192°
2026-05-05 16:33 46.17063 6.11320 34904 ft 411 kts 192°
2026-05-05 16:33 46.11404 6.10083 34904 ft 411 kts 192°
2026-05-05 16:34 46.05743 6.08828 34888 ft 411 kts 192°
2026-05-05 16:34 46.00124 6.07583 34863 ft 410 kts 193°
2026-05-05 16:35 45.94489 6.06340 34877 ft 407 kts 193°
2026-05-05 16:35 45.88867 6.05102 34886 ft 408 kts 193°
2026-05-05 16:36 45.83253 6.03863 34885 ft 409 kts 193°
2026-05-05 16:36 45.77624 6.02615 34877 ft 407 kts 193°
2026-05-05 16:37 45.72041 6.01388 34883 ft 407 kts 193°
2026-05-05 16:37 45.66444 6.00157 34881 ft 407 kts 193°
2026-05-05 16:38 45.60830 5.98933 34874 ft 407 kts 193°
2026-05-05 16:38 45.55260 5.97719 34881 ft 404 kts 193°
2026-05-05 16:39 45.49728 5.96509 34879 ft 404 kts 193°
2026-05-05 16:39 45.44224 5.94981 34883 ft 403 kts 197°
2026-05-05 16:40 45.38778 5.93273 34878 ft 398 kts 197°
2026-05-05 16:40 45.33359 5.91580 34895 ft 398 kts 197°
2026-05-05 16:41 45.27935 5.89890 34880 ft 399 kts 197°
2026-05-05 16:41 45.22513 5.88200 34875 ft 398 kts 197°
2026-05-05 16:42 45.17151 5.86539 34870 ft 397 kts 197°
2026-05-05 16:42 45.11753 5.84870 34879 ft 397 kts 197°
2026-05-05 16:43 45.06350 5.83201 34884 ft 397 kts 197°
2026-05-05 16:43 45.00965 5.81539 34868 ft 392 kts 198°
2026-05-05 16:44 44.95620 5.79893 34879 ft 392 kts 198°
2026-05-05 16:44 44.90317 5.78263 34885 ft 392 kts 197°
2026-05-05 16:45 44.84980 5.76628 34877 ft 392 kts 198°
2026-05-05 16:45 44.79647 5.74996 34883 ft 390 kts 198°
2026-05-05 16:46 44.74367 5.73378 34882 ft 390 kts 198°
2026-05-05 16:46 44.69052 5.71760 34872 ft 390 kts 198°
2026-05-05 16:47 44.63733 5.70144 34897 ft 393 kts 197°
2026-05-05 16:47 44.58378 5.68516 34894 ft 394 kts 197°
2026-05-05 16:48 44.53012 5.66886 34888 ft 394 kts 197°
2026-05-05 16:48 44.47627 5.65246 34892 ft 395 kts 197°
2026-05-05 16:49 44.42314 5.63634 34887 ft 392 kts 197°
2026-05-05 16:49 44.37040 5.61806 34888 ft 387 kts 204°
2026-05-05 16:50 44.32019 5.59100 34885 ft 386 kts 205°
2026-05-05 16:50 44.27023 5.56337 34869 ft 385 kts 206°
2026-05-05 16:51 44.22037 5.53606 34890 ft 384 kts 205°
2026-05-05 16:51 44.17058 5.50889 34886 ft 384 kts 206°
2026-05-05 16:52 44.12077 5.48174 34887 ft 384 kts 205°
2026-05-05 16:52 44.07118 5.45480 34877 ft 383 kts 206°
2026-05-05 16:53 44.02157 5.42784 34886 ft 383 kts 205°
2026-05-05 16:53 43.97199 5.40100 34891 ft 383 kts 205°
2026-05-05 16:54 43.92238 5.37410 34889 ft 382 kts 205°
2026-05-05 16:54 43.87289 5.34736 34885 ft 381 kts 205°
2026-05-05 16:55 43.82346 5.32068 34915 ft 382 kts 205°
2026-05-05 16:55 43.77389 5.29399 34911 ft 383 kts 205°
2026-05-05 16:56 43.72451 5.26743 34907 ft 383 kts 205°
2026-05-05 16:56 43.67493 5.24084 34897 ft 380 kts 205°
2026-05-05 16:57 43.62551 5.21436 34904 ft 380 kts 205°
2026-05-05 16:57 43.57611 5.18794 34904 ft 380 kts 205°
2026-05-05 16:58 43.52704 5.16175 34907 ft 380 kts 205°
2026-05-05 16:58 43.47771 5.13545 34902 ft 379 kts 205°
2026-05-05 16:59 43.42837 5.10921 34907 ft 379 kts 205°
2026-05-05 16:59 43.38007 5.08051 34904 ft 375 kts 213°
2026-05-05 17:00 43.33702 5.04096 34908 ft 374 kts 217°
2026-05-05 17:00 43.29427 5.00029 34891 ft 371 kts 217°
2026-05-05 17:01 43.25165 4.96008 34895 ft 372 kts 217°
2026-05-05 17:01 43.20889 4.91989 34908 ft 374 kts 217°
2026-05-05 17:02 43.16590 4.87960 34896 ft 374 kts 217°
2026-05-05 17:02 43.12294 4.83937 34866 ft 374 kts 217°
2026-05-05 17:03 43.08017 4.79942 34889 ft 372 kts 216°
2026-05-05 17:03 43.03631 4.76172 34891 ft 373 kts 212°
2026-05-05 17:04 42.99089 4.72731 34890 ft 374 kts 212°
2026-05-05 17:04 42.94568 4.69313 34888 ft 374 kts 212°
2026-05-05 17:05 42.90020 4.65873 34874 ft 372 kts 212°
2026-05-05 17:05 42.85488 4.62450 34885 ft 372 kts 212°
2026-05-05 17:06 42.80947 4.59025 34886 ft 372 kts 212°
2026-05-05 17:06 42.76434 4.55631 34899 ft 374 kts 212°
2026-05-05 17:07 42.71863 4.52197 34888 ft 375 kts 212°
2026-05-05 17:07 42.67299 4.48772 34884 ft 375 kts 212°
2026-05-05 17:08 42.62727 4.45345 34885 ft 375 kts 212°
2026-05-05 17:08 42.58152 4.41923 34880 ft 375 kts 212°
2026-05-05 17:09 42.53575 4.38513 34880 ft 375 kts 212°
2026-05-05 17:09 42.49017 4.35119 34870 ft 373 kts 212°
2026-05-05 17:10 42.44500 4.31757 34877 ft 373 kts 212°
2026-05-05 17:10 42.39941 4.28367 34880 ft 373 kts 212°
2026-05-05 17:11 42.35391 4.24995 34875 ft 373 kts 212°
2026-05-05 17:11 42.30838 4.21625 34851 ft 371 kts 212°
2026-05-05 17:12 42.26309 4.18279 34883 ft 373 kts 212°
2026-05-05 17:12 42.21753 4.14918 34875 ft 374 kts 212°
2026-05-05 17:13 42.17187 4.11552 34875 ft 374 kts 212°
2026-05-05 17:13 42.12647 4.08219 34874 ft 374 kts 212°
2026-05-05 17:14 42.08095 4.04876 34858 ft 372 kts 212°
2026-05-05 17:14 42.03544 4.01539 34867 ft 373 kts 212°
2026-05-05 17:15 41.98979 3.98193 34866 ft 373 kts 212°
2026-05-05 17:15 41.94415 3.94872 34869 ft 373 kts 211°
2026-05-05 17:16 41.89482 3.92624 34855 ft 382 kts 197°
2026-05-05 17:16 41.84220 3.91446 34866 ft 383 kts 196°
2026-05-05 17:17 41.78957 3.90272 34866 ft 383 kts 196°
2026-05-05 17:17 41.73696 3.89066 34866 ft 383 kts 197°
2026-05-05 17:18 41.68443 3.87856 34855 ft 383 kts 197°
2026-05-05 17:18 41.63176 3.86645 34867 ft 383 kts 197°
2026-05-05 17:19 41.57915 3.85436 34869 ft 384 kts 197°
2026-05-05 17:19 41.52686 3.84236 34872 ft 384 kts 197°
2026-05-05 17:20 41.47416 3.83033 34845 ft 385 kts 197°
2026-05-05 17:20 41.43018 3.82030 34863 ft 385 kts 197°
2026-05-05 17:21 41.37730 3.80819 34879 ft 386 kts 197°
2026-05-05 17:22 41.29786 3.79008 34870 ft 386 kts 197°
2026-05-05 17:22 41.24501 3.77808 34659 ft 381 kts 197°
2026-05-05 17:22 41.21879 3.77212 34399 ft 382 kts 197°
2026-05-05 17:23 41.19286 3.76623 34159 ft 381 kts 197°
2026-05-05 17:23 41.16676 3.76021 33923 ft 379 kts 198°
2026-05-05 17:23 41.14144 3.75142 33653 ft 373 kts 204°
2026-05-05 17:23 41.11717 3.73940 33379 ft 372 kts 206°
2026-05-05 17:24 41.09310 3.72673 33108 ft 373 kts 207°
2026-05-05 17:24 41.06897 3.71400 32799 ft 374 kts 207°
2026-05-05 17:24 41.04462 3.70128 32536 ft 377 kts 207°
2026-05-05 17:24 41.02012 3.68863 32275 ft 378 kts 206°
2026-05-05 17:25 40.99551 3.67596 32021 ft 379 kts 206°
2026-05-05 17:25 40.97919 3.66755 31844 ft 380 kts 207°
2026-05-05 17:25 40.94643 3.65068 31506 ft 381 kts 207°
2026-05-05 17:25 40.92166 3.63797 31259 ft 382 kts 206°
2026-05-05 17:26 40.89688 3.62528 31008 ft 383 kts 206°
2026-05-05 17:26 40.87202 3.61256 30762 ft 384 kts 207°
2026-05-05 17:26 40.84708 3.59978 30490 ft 385 kts 207°
2026-05-05 17:26 40.82205 3.58694 30251 ft 387 kts 206°
2026-05-05 17:27 40.79683 3.57410 30007 ft 388 kts 206°
2026-05-05 17:27 40.77164 3.56128 29731 ft 388 kts 206°
2026-05-05 17:27 40.74643 3.54842 29449 ft 387 kts 207°
2026-05-05 17:27 40.72138 3.53561 29166 ft 385 kts 207°
2026-05-05 17:28 40.69645 3.52289 28869 ft 384 kts 207°
2026-05-05 17:28 40.67162 3.51026 28376 ft 379 kts 207°
2026-05-05 17:28 40.64717 3.49785 27821 ft 373 kts 207°
2026-05-05 17:28 40.62337 3.48576 27276 ft 368 kts 207°
2026-05-05 17:29 40.59960 3.47369 26715 ft 364 kts 207°
2026-05-05 17:29 40.57603 3.46174 26154 ft 361 kts 207°
2026-05-05 17:29 40.55271 3.44989 25611 ft 357 kts 207°
2026-05-05 17:29 40.52962 3.43817 25111 ft 353 kts 207°
2026-05-05 17:30 40.50674 3.42660 24573 ft 351 kts 207°
2026-05-05 17:30 40.48406 3.41513 24032 ft 348 kts 207°
2026-05-05 17:30 40.46147 3.40379 23506 ft 346 kts 206°
2026-05-05 17:30 40.43804 3.39532 22889 ft 352 kts 197°
2026-05-05 17:31 40.41338 3.39325 22303 ft 359 kts 187°
2026-05-05 17:31 40.38845 3.39465 21749 ft 358 kts 185°
2026-05-05 17:31 40.36384 3.39641 21191 ft 357 kts 185°
2026-05-05 17:31 40.33912 3.39808 20654 ft 355 kts 185°
2026-05-05 17:32 40.31455 3.39960 20133 ft 352 kts 185°
2026-05-05 17:32 40.29009 3.40105 19624 ft 350 kts 184°
2026-05-05 17:32 40.26578 3.40245 19140 ft 349 kts 184°
2026-05-05 17:32 40.24158 3.40382 18679 ft 347 kts 184°
2026-05-05 17:33 40.21743 3.40518 18225 ft 347 kts 184°
2026-05-05 17:33 40.19324 3.40656 17672 ft 347 kts 184°
2026-05-05 17:33 40.16914 3.40792 17194 ft 346 kts 184°
2026-05-05 17:33 40.14534 3.40928 16715 ft 346 kts 183°
2026-05-05 17:34 40.12118 3.41063 16256 ft 350 kts 183°
2026-05-05 17:34 40.09684 3.41201 15812 ft 349 kts 183°
2026-05-05 17:34 40.07261 3.41341 15381 ft 347 kts 182°
2026-05-05 17:34 40.04848 3.41476 14926 ft 346 kts 182°
2026-05-05 17:35 40.02440 3.41611 14460 ft 344 kts 182°
2026-05-05 17:35 40.00088 3.41746 14207 ft 332 kts 182°
2026-05-05 17:35 39.97830 3.41876 14014 ft 318 kts 182°
2026-05-05 17:35 39.95667 3.42000 13861 ft 305 kts 183°
2026-05-05 17:36 39.93592 3.42120 13721 ft 291 kts 183°
2026-05-05 17:36 39.91589 3.42231 13313 ft 287 kts 183°
2026-05-05 17:36 39.89599 3.42340 12793 ft 286 kts 183°
2026-05-05 17:36 39.87609 3.42450 12282 ft 286 kts 182°
2026-05-05 17:37 39.85622 3.42560 11795 ft 285 kts 182°
2026-05-05 17:37 39.83641 3.42672 11312 ft 284 kts 182°
2026-05-05 17:37 39.81702 3.42782 10889 ft 282 kts 182°
2026-05-05 17:37 39.79753 3.42890 10501 ft 278 kts 182°
2026-05-05 17:38 39.77825 3.42996 10140 ft 277 kts 182°
2026-05-05 17:38 39.75896 3.43102 9783 ft 278 kts 181°
2026-05-05 17:38 39.73972 3.43199 9393 ft 275 kts 182°
2026-05-05 17:38 39.72065 3.43303 9014 ft 273 kts 182°
2026-05-05 17:39 39.70164 3.43403 8641 ft 272 kts 182°
2026-05-05 17:39 39.68275 3.43487 8271 ft 271 kts 182°
2026-05-05 17:39 39.66388 3.43568 7916 ft 270 kts 183°
2026-05-05 17:39 39.64579 3.43152 7545 ft 263 kts 206°
2026-05-05 17:40 39.63121 3.41787 7186 ft 259 kts 227°
2026-05-05 17:40 39.61951 3.40025 6837 ft 257 kts 231°
2026-05-05 17:40 39.60880 3.38209 6478 ft 256 kts 240°
2026-05-05 17:40 39.60364 3.36015 6095 ft 257 kts 266°
2026-05-05 17:41 39.60670 3.33743 5727 ft 260 kts 291°
2026-05-05 17:41 39.61740 3.31859 5365 ft 262 kts 315°
2026-05-05 17:41 39.63162 3.30451 5032 ft 259 kts 321°
2026-05-05 17:41 39.64631 3.29138 4944 ft 244 kts 322°
2026-05-05 17:42 39.65988 3.27946 4925 ft 225 kts 322°
2026-05-05 17:42 39.67206 3.26767 4925 ft 214 kts 307°
2026-05-05 17:42 39.67888 3.25124 4861 ft 209 kts 285°
2026-05-05 17:42 39.68265 3.23304 4680 ft 208 kts 282°
2026-05-05 17:43 39.68599 3.21474 4468 ft 208 kts 282°
2026-05-05 17:43 39.68924 3.19644 4230 ft 208 kts 282°
2026-05-05 17:43 39.69254 3.17811 4014 ft 208 kts 282°
2026-05-05 17:43 39.69575 3.15981 3949 ft 209 kts 282°
2026-05-05 17:44 39.69896 3.14139 3953 ft 209 kts 282°
2026-05-05 17:44 39.70222 3.12304 3970 ft 209 kts 282°
2026-05-05 17:44 39.70546 3.10467 3979 ft 208 kts 282°
2026-05-05 17:44 39.70559 3.08610 3976 ft 208 kts 256°
2026-05-05 17:45 39.70028 3.06850 3993 ft 210 kts 244°
2026-05-05 17:45 39.69253 3.05269 3994 ft 211 kts 239°
2026-05-05 17:45 39.68484 3.03655 4001 ft 209 kts 240°
2026-05-05 17:45 39.67726 3.02049 3994 ft 208 kts 241°
2026-05-05 17:46 39.66971 3.00443 3993 ft 210 kts 241°
2026-05-05 17:46 39.66214 2.98835 3894 ft 208 kts 241°
2026-05-05 17:46 39.65458 2.97226 3687 ft 209 kts 241°
2026-05-05 17:46 39.64696 2.95606 3439 ft 211 kts 240°
2026-05-05 17:47 39.63942 2.94004 3189 ft 202 kts 240°
2026-05-05 17:47 39.63237 2.92503 3010 ft 189 kts 241°
2026-05-05 17:47 39.62574 2.91095 2742 ft 179 kts 240°
2026-05-05 17:47 39.61930 2.89724 2484 ft 178 kts 241°
2026-05-05 17:48 39.61308 2.88405 2269 ft 162 kts 240°
2026-05-05 17:48 39.60735 2.87187 2048 ft 156 kts 239°
2026-05-05 17:48 39.60176 2.85999 1824 ft 153 kts 239°
2026-05-05 17:48 39.59625 2.84827 1616 ft 149 kts 237°
2026-05-05 17:49 39.59123 2.83762 1385 ft 131 kts 238°
2026-05-05 17:49 39.58643 2.82743 1193 ft 135 kts 238°
2026-05-05 17:49 39.58169 2.81736 1029 ft 130 kts 239°
2026-05-05 17:49 39.57695 2.80733 863 ft 130 kts 238°
2026-05-05 17:50 39.57224 2.79734 693 ft 130 kts 237°
2026-05-05 17:50 39.56755 2.78739 539 ft 128 kts 238°
2026-05-05 17:50 39.56291 2.77735 338 ft 131 kts 237°
2026-05-05 17:50 39.55817 2.76744 177 ft 129 kts 237°
2026-05-05 17:51 39.55347 2.75750 47 ft 128 kts 238°
2026-05-05 17:51 39.54927 2.74862 44 ft 93 kts 239°
2026-05-05 17:51 39.54691 2.74369 44 ft 40 kts 238°
2026-05-05 17:51 39.54567 2.74073 44 ft 32 kts 262°
2026-05-05 17:52 39.54551 2.73889 44 ft 7 kts 270°
2026-05-05 17:52 39.54551 2.73820 44 ft 9 kts 270°
2026-05-05 17:52 39.54551 2.73777 44 ft 0 kts 271°
2026-05-05 17:53 39.54551 2.73768 44 ft 3 kts 271°
2026-05-05 17:53 39.54576 2.73742 42 ft 7 kts 356°
2026-05-05 17:54 39.54628 2.73786 44 ft 11 kts 57°
2026-05-05 17:54 39.54672 2.73880 44 ft 13 kts 58°
2026-05-05 17:54 39.54712 2.73957 44 ft 7 kts 35°
2026-05-05 17:54 39.54763 2.73943 43 ft 9 kts 339°
2026-05-05 17:55 39.54804 2.73969 42 ft 6 kts 59°
2026-05-05 17:55 39.54845 2.73989 44 ft 7 kts 319°
2026-05-05 17:55 39.54854 2.73939 44 ft 6 kts 268°
2026-05-05 17:55 39.54853 2.73886 44 ft 4 kts 267°
2026-05-05 17:56 39.54852 2.73850 44 ft 3 kts 268°
2026-05-05 17:56 39.54852 2.73844 44 ft 0 kts 267°